STARLINK-11533, 62836

Orbit data source: Space-Track

STARLINK-11533, 62836 is a payload satellite owned by SpaceX/Seattle (US) in LEO that was launched on Mon, 27 Jan 2025 UTC via an FALCON 9 launch vehicle from the Air Force Eastern Test Range (AFETR). Payload-class satellites include a variety of spacecraft equipped with specific instruments for various scientific and technological missions. These include communications satellites like Starlink; space stations such as the ISS; scientific satellites like the Hubble; Earth observation satellites from companies like Planet Labs, Umbra, and HawkEye 360; GPS; miniature CubeSats for education and research; and military/defense satellites.

Loading next visibility...
Identifier
62836, 2025-019H
Orbit
LEO
Country
Flag of USUS
Related business
Manufacturer
SpaceX/Seattle
Mission
Operational Commercial Communications
Bus & Motor
STARLINK V2MD, Unknown motor
Mass
960 kg wet, ~910 kg dry
Launch date (UTC)
2025-01-27 (2 years ago)
Launch vehicle
FALCON 9
Launch site
Air Force Eastern Test Range (AFETR)
Object type
Payload
Rocket body
Debris
Shape & HBR
Box + 2 Pan, 18.1 m
Radar Cross Section
36.964 m², Large (>1 m²)

Expand to show TLE details & history
Last TLE update: 6 hours ago

TLE from 6 hours ago
0 STARLINK-11533
1 62836U 25019H   26247.89134053  .00144244  00000-0  11064-2 0  9999
2 62836  42.9993 305.8912 0000920 270.4505  89.6257 15.70878788 92068
Epoch: 2026-09-04T21:23Z
TLE epoch observation values (Epoch: 2026-09-04T21:23:31.821Z)
Latitude
-0.00005°
Longitude
0.9999°
Altitude
356.151 km
Speed
7.697 km/s
True Right ascension
20h 23m 33s
True Declination
0° 00' 00"
Sunlit
Object was in full shadow at epoch
Visualization orbit readout
Latitude
Unknown
Longitude
Unknown
Altitude
Unknown
Speed
Unknown
Apparent Right ascension
Unknown
Apparent Declination
Unknown
Sunlit
N/A
Visualization observer readout
Local Sidereal Time
19:48:01
Azimuth
Unknown
Elevation
Unknown
Doppler factor
Unknown
Orbital elements
Apogee altitude
358.986 km
Perigee altitude
357.746 km
Semi-major axis
6,736.503 km
Eccentricity
0.00009
Inclination
42.9993°
RAAN
305.8912°
Arg. of periapsis
270.4505°
True anomaly
89.63624°
Mean anomaly
89.6257°
Eccentric anomaly
89.63097°
Mean motion
3.92547 °/min
Orbital period
91.71 mins
BSTAR
0.0011064
Loading maneuver chart data...
Computing Atmospheric mass density...
Loading historical data...
Loading historical data...
Loading historical data...
Loading historical data...
Loading historical data...
Loading historical data...
Loading historical data...

Documentation

Showing up to 5 results
|